Flag for South Africa Weather past 2 weeks in Durban, South Africa

Now
70 °F

Passing clouds.


Feels Like: 70 °F
Forecast: 59 / 66 °F
Wind: 31 mph from Southwest

Location: King Shaka International Airport

Current Time: Oct 1, 2014 at 8:16:40 AM

Latest Report: Oct 1, 2014 at 7:00 AM


Visibility: N/A

Pressure: 29.98 "Hg

Humidity: 50%

Dew point: 50 °F

Location of DurbanLocation

Historic Weather in Durban — Graph

°F

Durban temperature yesterday

Maximum temperature yesterday: 77 °F (at 1:00 PM)
Minimum temperature yesterday: 63 °F (at 5:00 AM)
Average temperature yesterday: 68 °F

Past Weeks' High & Low Weather Summary

 TemperatureHumidityPressure
High86 °F (Sep 18, 2:00 PM)94% (Sep 18, 2:00 AM)30.42 "Hg (Sep 18, 2:00 AM)
Low50 °F (Sep 21, 2:00 AM)45% (Sep 24, 12:00 PM)29.50 "Hg (Sep 18, 2:00 PM)
Average67 °F74%30.03 "Hg
* Reported Sep 16 7:00 AM — Oct 1 7:00 AM, Durban, Weather by CustomWeather, © 2014

Note: Actual official high and low records may vary slightly from our data, if they occured in-between our weather recording intervals... More about our weather records

Advertising

Durban weather history for previous 24 hours

 ConditionsComfort  
Time TempWeatherWind HumidityBarometerVisibility
7:00 AM
Oct 1
70 °FPassing clouds.31 mph50%29.98 "HgN/A
6:00 AM66 °FPassing clouds.17 mph52%29.95 "HgN/A
5:00 AM63 °FSunny.14 mph52%29.92 "Hg10 mi
4:00 AM64 °FClear.12 mph46%29.89 "Hg10 mi
3:00 AM57 °FClear.5 mph63%29.89 "Hg10 mi
2:00 AM57 °FClear.6 mph63%29.89 "Hg10 mi
1:00 AM57 °FClear.1 mph63%29.92 "Hg10 mi
12:00 AM63 °FClear.9 mph56%29.92 "Hg10 mi
11:00 PM
Sep 30
64 °FPassing clouds.23 mph52%29.95 "HgN/A
10:00 PM64 °FLight rain. Passing clouds.18 mph60%29.95 "HgN/A
9:00 PM64 °FPassing clouds.18 mph56%29.95 "HgN/A
8:00 PM66 °FPassing clouds.25 mph52%29.92 "HgN/A
7:00 PM68 °FPassing clouds.15 mph53%29.89 "HgN/A
6:00 PM66 °FPassing clouds.12 mph64%29.83 "HgN/A
5:00 PM66 °FPassing clouds.17 mph64%29.77 "HgN/A
4:00 PM66 °FPartly sunny.18 mph68%29.71 "HgN/A
3:00 PM68 °FBroken clouds.26 mph78%29.68 "Hg4 mi
2:00 PM75 °FBroken clouds.10 mph78%29.62 "HgN/A
1:00 PM77 °FPassing clouds.12 mph74%29.65 "HgN/A
12:00 PM75 °FPassing clouds.12 mph74%29.68 "HgN/A
11:00 AM75 °FPassing clouds.13 mph69%29.74 "HgN/A
10:00 AM75 °FPassing clouds.10 mph69%29.80 "HgN/A
9:00 AM73 °FPartly sunny.6 mph69%29.83 "HgN/A
8:00 AM72 °FPassing clouds.3 mph73%29.86 "HgN/A
Weather by CustomWeather, © 2014

See weather overviewHow to use our weather pages